GALAXY 34 (G-34)

Last updated on Mon Jun 30 2025 00:02:47 GMT+0000 (Coordinated Universal Time)

1 54027U 22128B 25179.61484439 .00000054 00000+0 00000+0 0 9993 2 54027 0.0100 56.8109 0001225 54.2147 258.2417 1.00270850 10365
UTC large
Height (km)
Speed (km/s)
/
Latitude / Longitude
Inclination (degrees)
Orbital Period (minutes)
Azimuth
Elevation
Range (km)
Doppler Factor

Next 0 passes for location: London (51.5072 / 0.1276)

Sorry there are no passes over London.